This is the latest recevied weather packets stored in our database for station/object DO1SC. If no packets are shown the sender has not sent any weather packets the latest 10 day(s).
| Time | Temp. | Humidity | Pressure | Rain* | Wind** | Luminosity | Snow |
|---|---|---|---|---|---|---|---|
| 1778018720 | 10.56° C | 96% | 1007.1 hPa | - | - | 0 W/m² | - |
| 1778018128 | 11.11° C | 96% | 1007.3 hPa | - | - | 0 W/m² | - |
| 1778017521 | 10.56° C | 96% | 1007.2 hPa | - | - | 0 W/m² | - |
| 1778016933 | 10.56° C | 96% | 1007.3 hPa | - | - | 0 W/m² | - |
| 1778016325 | 10.56° C | 96% | 1007.2 hPa | - | - | 0 W/m² | - |
| 1778015734 | 10.56° C | 96% | 1007.3 hPa | - | - | 0 W/m² | - |
| 1778015126 | 10.56° C | 96% | 1007.5 hPa | - | - | 0 W/m² | - |
| 1778014517 | 10.56° C | 96% | 1007.6 hPa | - | - | 0 W/m² | - |
| 1778013932 | 10.56° C | 96% | 1007.6 hPa | - | - | 0 W/m² | - |
| 1778013320 | 10.56° C | 96% | 1007.6 hPa | - | - | 0 W/m² | - |
| 1778012733 | 10.56° C | 95% | 1007.5 hPa | - | - | 0 W/m² | - |
| 1778012124 | 10.56° C | 95% | 1007.4 hPa | - | - | 0 W/m² | - |
| 1778011536 | 11.11° C | 94% | 1007.1 hPa | - | - | 0 W/m² | - |
| 1778010929 | 11.11° C | 93% | 1006.8 hPa | - | - | 0 W/m² | - |
| 1778010317 | 11.11° C | 92% | 1006.7 hPa | - | - | 0 W/m² | - |
| 1778009729 | 11.11° C | 91% | 1006.8 hPa | - | - | 0 W/m² | - |
| 1778009120 | 11.11° C | 94% | 1006.9 hPa | - | - | 0 W/m² | - |
| 1778008532 | 11.11° C | 95% | 1007.3 hPa | - | - | 0 W/m² | - |
| 1778007926 | 11.11° C | 94% | 1007.6 hPa | - | - | 0 W/m² | - |
| 1778007333 | 11.11° C | 94% | 1007.7 hPa | - | - | 0 W/m² | - |
| 1778006724 | 11.11° C | 93% | 1007.7 hPa | - | - | 0 W/m² | - |
| 1778006136 | 11.11° C | 92% | 1007.8 hPa | - | - | 0 W/m² | - |
| 1778005528 | 11.67° C | 92% | 1008.1 hPa | - | - | 0 W/m² | - |
| 1778004919 | 12.22° C | 88% | 1008.2 hPa | - | - | 0 W/m² | - |
| 1778004330 | 13.89° C | 84% | 1008.1 hPa | - | - | 0 W/m² | - |
* Rain since midnight (hover to see other rain measurements)
** Current wind speed in m/s (hover to see current wind gust speed)